Temp
67 64 59 63 63 64 63 62 62 66 74 71 67 67 70 71 72 70 70 71 72 74 78 79 79 80 76 75 74 73 72 73 70 70 70 69 70 70 71 71 73 73 74 74
64 59 68 69 68 65 61 60 62 69 73 70 66 69 70 70 72 73 72 72 74 75 74 76 78 79 76 74 74 73 74 73 72 72 72 71 71 72 72 73 73 74 74 74
60 66 73 70 66 64 58 58 62 66 68 69 66 64 65 70 71 73 74 75 76 75 73 74 76 78 76 74 74 74 74 73 73 72 71 71 71 72 71 71 73 73 74 74
63 69 70 65 65 64 51 69 70 68 61 56 63 52 60 64 66 71 72 73 76 74 75 75 76 75 76 76 76 74 74 73 73 72 72 71 70 69 71 73 74 73 75 74
65 66 65 65 67 67 67 70 66 66 59 54 57 55 59 60 64 68 70 72 75 73 75 74 74 75 77 77 75 74 73 72 73 73 73 72 70 71 72 73 73 72 73 75
67 71 69 70 72 72 71 65 61 56 53 49 52 54 54 55 59 62 69 72 74 74 75 74 75 76 76 77 76 74 71 72 73 73 72 72 71 70 71 71 71 72 71 74
65 67 69 72 64 68 63 57 49 49 47 48 51 53 54 63 67 66 66 68 72 74 73 72 71 71 72 74 74 74 71 70 71 72 72 72 72 71 70 71 71 71 71 73
55 58 65 71 69 64 58 56 51 44 44 49 55 49 57 66 68 69 68 69 71 70 69 71 71 73 74 75 74 74 72 70 71 71 72 73 73 72 71 70 71 73 74 73
53 58 71 71 70 71 59 55 58 49 44 48 50 57 65 67 66 66 67 68 67 69 70 71 74 73 73 74 74 75 72 71 71 71 71 71 71 70 71 70 71 74 74 76
60 55 63 72 72 70 62 64 55 51 45 42 49 50 52 59 62 64 64 64 66 68 69 70 71 72 72 71 74 74 74 73 73 72 71 70 69 71 72 71 71 72 73 73
58 57 63 66 61 57 62 57 53 52 48 46 44 49 59 62 63 62 63 65 66 67 68 69 69 71 70 71 72 72 70 71 72 72 71 68 69 69 72 72 72 73 73 73
57 56 52 55 63 63 60 55 52 51 48 44 47 50 61 62 63 63 64 66 67 67 67 68 68 69 69 68 70 71 70 68 68 70 70 71 71 72 73 73 73 73 73 74
62 54 49 54 60 62 58 57 53 49 47 46 48 51 60 61 62 64 63 65 65 66 66 65 66 66 67 68 69 69 69 67 67 68 69 69 69 68 69 71 74 74 73 73
64 49 52 49 51 54 55 59 56 51 48 46 49 52 54 58 60 62 62 64 64 64 64 64 65 65 66 68 68 69 70 71 70 71 71 72 70 70 72 71 71 74 74 73
60 53 48 49 56 55 56 56 57 53 52 53 54 53 55 58 60 61 62 63 64 64 65 65 65 65 65 65 67 69 69 69 70 71 71 70 71 72 72 71 72 73 74 75
56 51 48 49 56 55 55 57 57 55 55 52 54 53 60 62 62 62 62 63 63 64 66 66 66 66 65 65 65 65 66 65 66 67 67 68 70 70 70 69 69 70 71 73
55 51 48 46 51 53 49 53 54 54 56 55 51 55 61 59 61 60 60 62 62 62 63 63 64 64 65 66 66 65 65 65 65 64 65 66 67 68 69 69 68 68 69 70
51 48 45 44 45 39 51 58 60 56 57 58 58 58 60 59 59 61 62 62 63 65 65 66 66 66 65 65 65 64 65 64 64 63 63 64 64 65 67 68 67 68 68 69
53 47 42 45 41 47 56 58 58 54 53 59 57 58 60 60 61 60 64 65 65 65 66 65 65 65 64 65 66 64 64 63 63 63 63 63 64 64 66 66 67 67 67 67
50 49 51 41 42 41 51 60 62 59 48 60 60 58 59 59 52 56 62 64 65 65 65 65 65 65 64 64 64 63 63 63 63 63 64 64 64 63 64 65 66 66 66 66
46 45 46 42 43 48 56 61 62 48 50 58 60 59 58 56 57 61 63 63 63 63 64 64 63 62 63 64 63 60 62 62 65 66 64 63 63 63 64 64 65 65 65 64
48 45 43 42 40 44 58 60 53 55 54 59 59 59 58 59 60 61 62 61 62 62 62 64 61 61 63 63 61 60 59 64 64 63 63 63 63 64 66 63 63 64 64 63
48 49 47 47 47 53 55 55 56 58 57 58 58 62 61 60 60 61 60 60 60 61 60 62 60 61 61 61 61 60 62 63 62 61 61 62 63 64 64 62 62 62 63 62
50 50 47 48 51 53 56 58 60 60 59 60 60 61 61 59 60 58 58 58 58 59 59 60 59 59 59 61 62 61 62 62 61 60 61 62 62 62 64 64 62 61 61 62
52 51 47 47 51 55 58 58 59 61 62 62 62 61 61 59 58 58 57 57 57 57 58 59 58 57 58 59 60 61 62 62 60 60 61 62 62 62 62 62 61 61 62 62
51 50 48 47 54 53 55 59 61 59 60 60 58 58 60 59 57 57 56 56 56 56 57 56 56 56 57 58 59 60 61 60 59 60 61 61 61 62 62 60 60 53 53 51
MSLP
1007.74 1008.56 1008.80 1008.84 1008.58 1008.79 1008.92 1008.78 1008.31 1006.90 1006.27 1006.50 1006.75 1007.24 1007.62 1008.31 1009.07 1009.36 1009.68 1010.03 1010.23 1010.09 1010.34 1011.06 1011.63 1012.25 1012.97 1013.69 1014.38 1014.98 1015.46 1015.95 1016.74 1017.10 1017.50 1017.65 1017.71 1017.85 1017.89 1017.79 1017.90 1018.08 1018.20 1018.30
1008.51 1008.63 1008.30 1008.29 1008.27 1008.51 1008.59 1008.42 1007.92 1006.95 1006.36 1006.53 1007.01 1007.25 1007.30 1007.79 1007.87 1008.10 1008.71 1009.30 1009.49 1009.77 1010.31 1010.81 1011.28 1011.80 1012.44 1013.15 1013.82 1014.46 1014.85 1015.47 1015.95 1016.37 1016.74 1017.03 1017.33 1017.49 1017.11 1017.45 1017.65 1017.72 1017.87 1018.04
1008.35 1008.06 1007.53 1007.68 1007.74 1008.06 1008.11 1008.19 1007.76 1007.44 1006.77 1006.90 1007.35 1007.84 1007.66 1007.74 1007.87 1008.27 1008.53 1008.79 1009.09 1009.38 1010.00 1010.43 1010.90 1011.31 1012.13 1012.74 1013.13 1013.62 1014.13 1014.72 1015.31 1015.94 1016.45 1016.90 1017.18 1017.29 1017.40 1017.38 1017.36 1017.24 1017.32 1017.60
1007.95 1007.47 1007.41 1007.50 1007.58 1007.64 1007.69 1006.86 1007.28 1007.42 1007.93 1008.24 1008.44 1009.42 1008.96 1008.72 1008.39 1008.20 1008.42 1008.50 1008.50 1008.95 1009.61 1010.19 1010.76 1011.22 1011.48 1011.95 1012.58 1013.07 1013.65 1014.27 1014.92 1015.58 1016.22 1016.50 1016.77 1017.16 1017.03 1016.93 1016.77 1016.80 1016.86 1017.15
1007.57 1007.30 1007.07 1006.95 1006.65 1007.06 1006.96 1006.97 1007.48 1007.94 1008.78 1009.28 1009.79 1010.43 1010.02 1009.43 1008.98 1008.57 1008.25 1008.26 1008.30 1009.04 1009.59 1009.96 1010.55 1011.22 1011.75 1012.17 1012.71 1013.14 1013.59 1014.02 1014.47 1015.16 1015.69 1016.30 1016.71 1016.85 1017.07 1017.00 1016.92 1016.87 1016.75 1016.70
1007.17 1006.58 1006.38 1005.97 1005.89 1006.18 1006.83 1007.39 1008.57 1009.49 1010.20 1011.14 1011.10 1011.19 1011.35 1011.18 1010.99 1009.90 1008.69 1008.32 1008.31 1008.67 1009.40 1009.99 1010.37 1010.79 1011.13 1011.59 1012.22 1012.94 1013.65 1014.21 1014.52 1014.87 1015.38 1015.82 1016.26 1016.65 1017.13 1017.22 1017.06 1016.86 1016.75 1016.64
1007.22 1006.44 1005.83 1005.51 1005.90 1006.26 1007.16 1008.41 1009.90 1011.09 1011.70 1012.10 1011.73 1011.78 1011.68 1011.05 1010.88 1010.60 1009.72 1008.88 1008.90 1009.08 1009.45 1009.82 1010.40 1010.94 1011.18 1011.48 1012.06 1012.62 1013.26 1013.91 1014.46 1014.78 1014.98 1015.24 1015.56 1015.97 1016.28 1016.44 1016.51 1016.52 1016.56 1016.50
1007.82 1006.74 1005.83 1005.29 1005.51 1006.17 1007.36 1008.53 1010.12 1011.39 1012.60 1012.45 1012.04 1012.27 1011.49 1011.28 1011.08 1010.75 1010.36 1009.84 1009.71 1009.96 1010.49 1010.88 1011.10 1011.18 1011.31 1011.13 1011.25 1011.94 1012.32 1013.01 1013.51 1014.02 1014.92 1015.28 1015.38 1015.54 1015.79 1016.21 1016.21 1016.06 1015.90 1015.84
1007.75 1006.94 1005.80 1005.46 1005.40 1005.89 1007.50 1008.70 1009.70 1011.25 1012.70 1012.90 1012.91 1012.36 1011.60 1011.53 1011.70 1011.51 1011.21 1010.96 1011.24 1011.31 1011.52 1011.64 1011.69 1011.52 1011.08 1011.56 1011.01 1010.82 1011.40 1012.20 1012.82 1013.68 1014.09 1014.63 1015.00 1014.48 1015.37 1015.49 1015.67 1015.75 1015.60 1015.30
1007.59 1007.42 1006.52 1005.98 1005.87 1006.49 1007.10 1008.60 1010.00 1011.34 1012.77 1013.44 1013.43 1013.02 1012.58 1012.53 1012.62 1012.49 1012.31 1012.35 1012.24 1012.19 1012.19 1012.20 1011.98 1011.85 1011.57 1011.12 1010.87 1011.05 1011.27 1012.02 1012.55 1013.27 1013.64 1013.03 1011.88 1012.99 1014.52 1015.40 1015.34 1014.97 1014.85 1014.88
1007.67 1008.21 1007.70 1007.07 1007.59 1008.03 1008.26 1009.18 1010.68 1011.89 1012.95 1013.43 1013.88 1013.35 1012.53 1012.70 1013.02 1013.27 1013.27 1013.21 1013.08 1012.87 1012.74 1012.72 1012.75 1012.57 1011.92 1011.33 1011.17 1011.59 1012.26 1012.95 1013.28 1012.80 1013.48 1013.07 1012.18 1012.16 1013.34 1014.34 1014.81 1014.31 1014.24 1014.14
1008.31 1009.02 1009.18 1009.02 1008.63 1008.62 1008.97 1009.84 1010.86 1012.32 1013.53 1013.79 1013.70 1013.29 1012.96 1013.03 1013.28 1013.53 1013.77 1013.73 1013.65 1013.34 1013.16 1013.07 1012.88 1012.34 1011.66 1011.86 1011.90 1012.09 1013.33 1013.85 1014.15 1013.78 1014.11 1013.42 1013.17 1013.32 1014.04 1013.82 1013.82 1013.75 1013.60 1013.46
1008.47 1009.67 1010.42 1010.09 1009.65 1009.36 1009.89 1010.35 1011.20 1012.14 1012.81 1013.61 1013.85 1013.52 1013.47 1013.50 1013.84 1014.09 1014.14 1014.14 1014.07 1013.92 1013.66 1013.54 1013.31 1013.09 1012.78 1012.59 1012.56 1012.53 1013.25 1013.71 1014.25 1014.34 1014.17 1014.01 1013.82 1013.56 1013.66 1013.38 1013.02 1012.45 1012.51 1012.71
1008.58 1010.75 1011.01 1011.10 1010.86 1010.87 1010.82 1010.84 1011.24 1012.03 1013.06 1013.69 1013.30 1013.24 1013.68 1013.90 1014.13 1014.46 1014.52 1014.44 1014.43 1014.29 1014.18 1014.13 1013.94 1013.82 1013.77 1013.51 1013.00 1012.52 1012.60 1013.17 1013.31 1013.52 1013.44 1012.94 1012.80 1012.69 1012.42 1012.07 1012.03 1011.87 1011.84 1011.92
1009.66 1011.22 1011.56 1011.42 1011.23 1011.10 1011.03 1011.20 1011.47 1012.08 1012.33 1012.98 1012.63 1012.98 1013.37 1013.81 1014.21 1014.44 1014.64 1014.81 1014.77 1014.69 1014.61 1014.61 1014.60 1014.53 1014.28 1013.93 1013.62 1012.98 1012.91 1012.62 1012.90 1013.09 1013.08 1013.03 1012.83 1012.58 1012.30 1011.90 1011.64 1011.34 1011.25 1011.12
1010.62 1011.93 1012.26 1012.27 1011.70 1011.70 1011.55 1011.58 1011.54 1011.86 1012.35 1012.71 1012.91 1013.17 1013.22 1013.91 1014.23 1014.79 1015.04 1015.12 1015.09 1015.08 1015.02 1015.05 1014.92 1014.74 1014.65 1014.46 1014.26 1013.99 1013.67 1013.24 1012.92 1012.91 1013.07 1013.09 1012.87 1012.66 1012.40 1012.10 1011.74 1011.20 1010.97 1010.66
1011.42 1012.51 1013.58 1013.40 1012.68 1012.29 1012.13 1011.98 1011.90 1012.23 1012.50 1012.85 1013.34 1013.29 1013.40 1014.15 1014.43 1014.89 1015.19 1015.20 1015.31 1015.37 1015.34 1015.30 1015.24 1014.98 1014.71 1014.44 1014.19 1014.15 1013.83 1013.51 1013.10 1012.68 1012.42 1012.39 1012.34 1012.19 1011.94 1011.77 1011.56 1011.08 1010.68 1010.44
1012.22 1013.47 1014.08 1014.47 1013.78 1013.44 1012.62 1012.07 1011.96 1012.48 1012.95 1013.00 1013.26 1013.62 1013.84 1014.28 1014.58 1014.64 1014.79 1014.85 1014.88 1014.69 1014.54 1014.42 1014.32 1014.24 1014.15 1014.08 1014.06 1013.90 1013.65 1013.28 1012.89 1012.44 1012.10 1011.84 1011.77 1011.65 1011.38 1011.17 1010.95 1010.58 1010.38 1010.06
1012.12 1013.45 1015.04 1015.24 1015.00 1014.12 1012.80 1012.04 1012.12 1012.43 1013.37 1013.36 1013.65 1014.07 1014.44 1014.77 1014.86 1014.94 1014.60 1014.39 1014.34 1014.34 1014.31 1014.23 1014.13 1014.07 1013.86 1013.70 1013.36 1013.38 1013.28 1013.02 1012.82 1012.43 1011.85 1011.38 1011.22 1011.00 1010.85 1010.64 1010.39 1010.19 1010.01 1009.79
1012.90 1013.34 1014.08 1015.57 1015.24 1014.25 1012.61 1011.96 1012.01 1012.42 1013.33 1013.25 1013.65 1014.15 1014.56 1014.92 1015.29 1015.02 1014.44 1014.37 1014.25 1014.12 1014.04 1014.04 1013.90 1013.87 1013.86 1013.41 1013.17 1013.18 1012.94 1012.61 1012.21 1011.72 1011.34 1011.09 1010.87 1010.67 1010.43 1010.29 1009.92 1009.66 1009.45 1009.48
1013.67 1014.52 1014.94 1015.26 1014.74 1013.73 1012.59 1012.15 1012.19 1013.17 1013.72 1013.28 1013.64 1013.95 1014.42 1014.84 1014.61 1014.36 1014.31 1014.23 1014.02 1013.86 1013.80 1013.64 1013.75 1013.82 1013.46 1013.10 1012.95 1012.97 1012.53 1012.25 1011.50 1011.09 1010.83 1010.66 1010.46 1010.23 1010.04 1009.82 1009.65 1009.20 1008.93 1008.89
1014.05 1014.71 1015.38 1015.70 1015.14 1014.02 1012.91 1012.65 1013.06 1013.51 1013.45 1013.51 1013.76 1013.95 1014.25 1014.39 1014.32 1014.26 1014.21 1014.19 1013.90 1013.70 1013.58 1013.41 1013.41 1013.24 1012.82 1012.54 1012.52 1012.36 1011.99 1011.11 1010.85 1010.70 1010.49 1010.17 1009.84 1009.59 1009.20 1009.24 1009.22 1008.98 1008.53 1008.45
1014.29 1014.35 1014.66 1015.43 1014.87 1013.89 1013.34 1013.00 1013.22 1013.42 1013.61 1013.85 1013.99 1013.97 1014.11 1014.32 1014.22 1014.18 1014.19 1014.02 1013.78 1013.57 1013.35 1013.15 1013.05 1012.78 1012.39 1012.05 1011.94 1011.64 1010.83 1010.38 1010.10 1010.08 1009.93 1009.62 1009.17 1008.84 1008.60 1008.56 1008.42 1008.50 1008.10 1007.69
1014.04 1014.12 1014.82 1015.13 1014.75 1014.20 1013.64 1013.33 1013.20 1013.40 1013.68 1013.85 1013.99 1014.08 1014.20 1014.40 1014.26 1014.26 1014.07 1013.86 1013.64 1013.43 1013.18 1012.94 1012.73 1012.39 1011.92 1011.56 1011.19 1010.76 1010.24 1009.90 1009.70 1009.44 1009.15 1008.92 1008.54 1007.87 1007.64 1007.79 1007.71 1007.62 1007.53 1007.15
1014.18 1014.22 1014.90 1015.26 1014.81 1014.30 1013.87 1013.65 1013.64 1013.70 1013.84 1014.00 1014.03 1014.11 1014.13 1014.22 1014.17 1014.10 1013.96 1013.75 1013.53 1013.31 1013.00 1012.77 1012.52 1012.14 1011.64 1011.24 1010.65 1010.09 1009.53 1009.16 1008.98 1008.67 1008.36 1007.97 1007.69 1007.33 1006.71 1006.49 1006.62 1006.50 1006.15 1005.87
1013.96 1014.08 1014.38 1014.51 1014.04 1014.18 1014.07 1013.88 1014.03 1014.33 1014.54 1014.54 1014.59 1014.41 1014.28 1014.29 1014.15 1013.86 1013.74 1013.52 1013.36 1013.03 1012.66 1012.38 1012.02 1011.78 1011.27 1010.72 1010.12 1009.54 1009.00 1008.70 1008.45 1008.09 1007.72 1007.37 1007.00 1006.59 1006.25 1005.89 1005.55 1005.65 1005.44 1005.04
Wind_Speed
5 6 3 5 3 3 3 3 5 7 6 5 7 6 5 9 7 9 10 12 12 15 8 8 8 12 11 11 10 12 11 9 6 3 3 2 4 2 3 4 6 6 6 6
6 3 6 4 4 4 3 2 5 6 2 5 1 8 6 11 14 16 13 13 14 11 8 9 12 12 13 14 12 12 12 11 9 6 3 3 3 2 3 3 4 6 6 6
5 4 2 0 4 2 3 4 4 7 4 4 3 9 3 1 4 5 7 8 9 12 9 9 13 13 10 13 14 13 12 12 10 7 4 3 2 1 1 3 3 6 8 6
4 3 1 1 5 7 2 6 5 2 4 2 3 5 5 7 5 10 8 10 12 9 8 9 10 10 12 12 10 10 11 11 9 10 7 6 4 4 3 3 4 5 6 7
7 3 2 4 3 5 8 4 2 3 4 4 3 5 7 8 6 5 7 10 11 5 9 9 8 6 4 6 6 6 8 9 9 11 9 7 4 3 1 2 4 5 5 6
7 2 3 7 2 6 3 4 8 6 4 3 4 4 5 4 6 10 9 6 9 11 9 8 7 8 7 7 7 7 8 6 7 9 8 10 8 6 4 4 4 4 3 4
6 4 4 3 1 3 3 7 4 5 6 3 4 4 8 7 6 7 10 6 5 8 10 11 10 7 6 8 7 7 8 7 5 7 8 9 8 7 9 8 6 5 4 4
1 7 2 1 6 5 3 7 7 3 3 2 3 1 4 4 6 7 6 5 8 10 8 8 7 7 6 8 11 10 10 8 8 7 4 3 4 4 5 6 5 6 7 6
4 5 4 1 2 6 2 1 4 8 3 4 1 3 3 6 7 8 9 11 10 9 7 7 5 6 3 6 8 13 12 10 8 5 5 4 3 5 6 6 7 7 8 7
3 1 2 5 3 6 4 5 3 4 2 2 2 3 5 3 3 7 8 9 9 8 8 7 6 5 3 6 4 7 9 9 9 8 5 6 8 7 8 6 11 11 10 9
4 4 4 4 6 2 5 4 7 6 3 6 4 6 3 6 4 3 4 5 6 7 6 6 4 1 1 5 6 5 9 8 6 7 5 4 8 5 2 10 15 12 11 11
2 5 2 1 3 1 2 3 4 6 3 1 3 5 3 6 6 6 4 3 3 5 5 5 4 6 9 6 5 5 8 8 6 6 4 4 6 9 8 10 14 14 13 12
5 3 3 7 8 5 5 3 5 5 3 5 6 6 4 5 6 4 5 4 4 5 6 6 7 7 7 6 5 4 2 7 7 8 6 7 9 7 9 9 11 10 12 13
8 4 6 7 5 3 4 4 3 4 3 4 6 6 4 7 11 6 5 4 4 5 6 4 5 6 5 4 4 5 5 2 4 3 4 1 5 6 7 7 8 7 8 10
5 4 1 2 3 2 3 2 5 5 5 6 4 7 5 8 9 7 6 4 5 4 4 4 4 5 6 7 7 5 4 3 2 2 4 5 5 5 4 4 5 5 6 9
3 2 2 2 2 3 4 4 5 1 3 4 5 2 4 6 6 6 6 6 4 2 4 4 6 6 5 6 6 7 8 9 6 5 5 4 5 4 5 5 6 5 4 6
3 7 4 5 3 5 4 4 3 3 3 5 4 5 4 4 5 6 7 7 7 6 6 5 5 5 5 5 6 7 7 6 7 7 6 6 5 5 6 5 6 6 5 4
7 6 3 3 4 2 5 2 6 8 4 5 7 5 5 6 4 5 5 7 6 4 2 2 3 4 4 4 5 6 6 7 7 7 7 7 5 6 6 5 6 6 4 5
3 6 4 5 3 5 5 4 4 3 1 2 6 6 7 5 3 2 4 4 5 5 5 5 5 5 6 7 7 6 7 7 7 8 8 7 6 7 6 6 6 6 4 5
6 6 6 3 5 7 6 2 3 4 3 5 4 7 8 5 3 5 6 5 7 7 6 6 7 6 6 9 7 6 9 10 11 8 9 7 7 7 8 6 7 4 4 5
3 4 5 3 3 5 5 2 3 5 7 5 5 4 6 5 6 4 3 6 6 6 7 7 6 7 9 8 7 8 9 10 13 11 6 7 8 9 8 9 6 8 8 5
5 5 3 3 3 5 2 3 4 5 2 3 2 2 3 6 7 6 7 7 9 8 7 7 6 7 8 8 6 9 10 13 9 7 9 10 9 8 8 7 6 8 8 7
0 5 5 5 5 3 4 2 3 4 4 2 2 4 6 7 6 6 7 8 7 7 7 5 6 8 7 7 8 12 14 11 7 6 9 9 10 10 9 7 7 6 8 8
2 3 4 3 3 1 2 2 3 2 1 1 3 4 4 6 7 7 7 7 6 6 6 5 7 11 12 10 10 12 13 9 8 9 9 8 9 12 11 7 6 6 7 8
4 3 5 1 3 2 3 1 1 3 4 5 6 4 6 5 8 7 7 7 5 6 6 7 9 10 12 11 12 12 12 10 9 9 9 11 9 10 11 9 7 7 8 9
3 6 4 6 8 5 3 2 2 2 4 5 5 7 7 5 8 7 7 5 6 9 10 10 11 10 12 12 12 12 11 9 10 10 9 9 9 9 9 9 8 12 16 14
Wind_Direction
8 52 233 231 175 164 193 200 248 262 266 179 203 249 209 187 198 185 187 198 204 216 189 179 171 180 159 167 171 171 180 185 157 166 166 190 210 185 233 209 217 216 213 208
25 227 227 206 168 183 160 318 288 284 281 154 78 275 261 177 211 204 191 195 205 215 174 172 179 177 175 171 181 176 188 175 182 184 176 162 154 190 194 212 209 205 214 207
164 235 15 341 286 295 240 196 232 232 359 36 64 313 323 283 258 210 211 216 217 203 180 176 181 186 168 176 180 183 184 176 179 182 132 96 82 75 186 209 207 213 202 200
240 293 260 240 254 147 278 204 220 134 78 208 52 273 13 320 271 224 199 199 216 186 163 178 171 185 185 190 178 175 179 179 178 164 178 177 175 182 216 232 210 203 206 194
257 218 266 328 215 182 223 149 65 54 91 68 3 85 288 348 13 280 237 213 206 155 163 173 163 157 163 155 172 177 175 180 176 179 185 187 192 199 202 243 225 214 216 205
238 270 227 218 226 187 94 73 40 47 74 42 318 125 311 330 291 300 310 251 160 149 138 127 136 142 153 152 154 156 170 197 182 179 184 187 194 185 191 226 234 227 228 218
326 257 271 163 130 21 90 55 346 14 16 194 286 53 244 285 331 300 316 351 115 120 133 136 136 136 150 152 156 155 163 189 182 194 193 195 200 193 206 210 214 217 220 219
155 333 241 199 184 180 59 141 155 199 196 251 11 28 286 354 3 348 351 49 74 82 92 103 116 129 147 179 173 177 176 170 173 177 208 231 206 202 219 227 221 228 223 215
156 281 317 358 167 119 176 124 176 105 4 79 253 328 322 31 0 359 18 45 44 51 53 62 56 61 50 257 219 191 170 163 166 148 120 97 290 288 238 232 221 234 234 226
199 32 351 308 62 33 109 143 48 14 136 131 272 200 221 228 326 359 26 34 51 54 50 45 44 24 315 284 244 163 154 153 151 152 191 191 201 223 259 254 239 226 225 223
131 115 288 41 25 340 1 19 51 111 100 153 158 255 214 187 148 125 21 45 52 55 51 52 56 77 126 54 67 85 83 66 73 113 178 242 278 317 264 261 258 240 234 213
97 131 82 145 297 213 20 102 113 116 228 71 141 254 26 123 141 134 113 83 59 65 56 50 27 30 45 39 22 24 78 86 90 88 197 199 264 261 260 239 244 247 238 222
175 33 49 359 351 9 43 350 95 95 75 190 137 246 103 108 114 112 123 91 80 77 50 37 35 31 36 34 22 33 77 137 153 181 219 196 226 244 249 250 256 233 231 238
82 91 150 183 201 181 309 333 60 104 110 176 223 160 180 155 149 154 141 114 89 66 56 30 27 23 15 9 12 28 21 80 128 189 194 293 286 279 296 300 286 268 238 237
94 120 183 185 223 217 235 283 310 206 186 164 252 197 160 165 165 159 135 125 91 71 44 358 356 338 333 340 332 339 286 331 11 346 326 286 279 276 294 291 294 298 290 260
358 133 82 295 300 324 270 6 326 84 110 86 132 82 134 130 116 128 151 148 141 67 29 1 357 349 335 321 319 324 321 315 325 307 278 273 279 257 260 274 282 294 291 285
80 129 99 260 4 338 334 308 287 52 45 140 154 204 134 83 119 132 124 124 134 143 154 172 200 225 254 276 273 267 274 276 283 287 285 285 282 274 269 252 266 267 274 272
130 104 97 198 28 252 244 264 94 106 44 52 86 81 108 134 118 126 159 141 142 156 176 302 304 308 291 222 250 262 280 286 294 292 286 288 285 280 278 268 269 281 271 277
84 124 91 133 151 289 303 255 193 136 308 284 119 112 123 129 91 321 216 187 188 205 222 236 240 238 261 270 272 275 279 247 255 273 282 281 285 287 282 274 265 262 264 276
76 71 113 142 148 197 241 245 120 120 288 197 143 144 167 161 142 244 216 231 247 247 240 246 247 253 255 263 264 278 272 280 277 248 249 271 281 275 279 274 285 258 248 261
42 23 148 144 181 288 250 222 119 88 241 163 167 172 156 188 203 231 232 249 239 246 260 262 260 247 256 263 255 255 259 262 262 271 273 266 269 265 261 265 251 267 260 255
170 139 171 97 97 247 10 99 168 208 38 144 153 210 229 249 270 257 265 270 272 273 280 265 258 262 269 269 262 254 252 255 254 256 272 277 274 267 273 249 252 252 251 249
14 175 174 164 212 272 289 117 130 144 132 178 197 245 240 268 264 293 284 291 280 281 286 284 274 287 282 270 259 269 268 265 253 253 260 265 270 273 264 246 259 248 241 242
8 141 98 84 300 48 65 88 111 121 114 315 263 276 260 245 269 270 281 283 287 296 299 299 303 302 297 299 289 274 282 275 261 262 265 263 267 277 271 248 224 229 235 238
198 104 135 39 302 336 317 283 49 354 359 334 319 280 277 292 283 261 269 281 284 284 291 297 291 289 288 291 289 288 288 293 279 271 274 278 273 272 276 268 235 237 237 230
183 166 145 212 207 149 232 208 340 316 292 294 291 306 304 292 284 295 293 289 290 295 298 295 290 283 283 286 288 287 285 281 278 282 283 274 275 271 267 270 273 229 240 240